CW9451 Weather Reports


Display with metric or nautical units.
time (UTC)temp
F
wind
direction
speed
MPH
gust
MPH
rain 1hr
in
rain 24hr
in
rain mn
in
humidity
%
barometer
mb
20260508171908 55 0.0 0.0 0.00 0.00 0.00 93 1020.9
20260508164904 56 0.0 0.0 0.00 0.00 0.00 91 1020.9
20260508163904 56 0.0 0.0 0.00 0.00 0.00 90 1020.9
20260508162908 56 0.0 0.0 0.00 0.00 0.00 90 1020.9
20260508160904 56 0.0 0.0 0.00 0.00 0.00 89 1020.9
20260508155905 56 0.0 0.0 0.00 0.00 0.00 89 1021.0
20260508154904 56 0.0 0.0 0.00 0.00 0.00 88 1020.9
20260508153904 56 0.0 0.0 0.00 0.00 0.00 88 1020.9
20260508152903 56 0.0 0.0 0.00 0.00 0.00 88 1020.9
20260508151904 56 0.0 0.0 0.00 0.00 0.00 88 1020.9
20260508150909 56 0.0 0.0 0.00 0.00 0.00 87 1020.9
20260508144905 56 0.0 0.0 0.00 0.00 0.00 87 1021.0
20260508143909 56 0.0 0.0 0.00 0.00 0.00 87 1020.9
20260508141904 56 0.0 0.0 0.00 0.00 0.00 86 1020.9
20260508140904 56 0.0 0.0 0.00 0.00 0.00 84 1020.9
20260508135904 57 0.0 0.0 0.00 0.00 0.00 83 1020.9
20260508134905 57 0.0 0.0 0.00 0.00 0.00 82 1021.0
20260508133904 57 0.0 0.0 0.00 0.00 0.00 83 1021.0
20260508132904 57 0.0 0.0 0.00 0.00 0.00 86 1021.1
20260508131904 57 0.0 0.0 0.00 0.00 0.00 86 1021.2
20260508130904 57 0.0 0.0 0.00 0.00 0.00 86 1021.3
20260508125904 57 0.0 0.0 0.00 0.00 0.00 87 1021.3
20260508124905 57 0.0 0.0 0.00 0.00 0.00 87 1021.4
20260508123905 56 0.0 0.0 0.00 0.00 0.00 87 1021.4
20260508122905 57 0.0 0.0 0.00 0.00 0.00 86 1021.4
20260508121904 57 0.0 0.0 0.00 0.00 0.00 87 1021.5
20260508120910 56 0.0 0.0 0.00 0.00 0.00 86 1021.5
20260508115905 57 0.0 0.0 0.00 0.00 0.00 86 1021.4
20260508114905 57 0.0 0.0 0.00 0.00 0.00 86 1021.5
20260508113904 57 0.0 0.0 0.00 0.00 0.00 88 1021.8
20260508112909 57 0.0 0.0 0.00 0.00 0.00 89 1021.8
20260508110905 56 0.0 0.0 0.00 0.00 0.00 91 1022.0
20260508105904 56 0.0 0.0 0.00 0.00 0.00 91 1021.9
20260508104909 56 0.0 0.0 0.00 0.00 0.00 91 1021.8
20260508102904 55 0.0 0.0 0.00 0.00 0.00 92 1021.8
20260508101904 55 0.0 0.0 0.00 0.00 0.00 92 1021.6
20260508100904 55 0.0 0.0 0.00 0.00 0.00 93 1021.9
20260508095905 55 0.0 0.0 0.00 0.00 0.00 94 1021.9
20260508094904 55 0.0 0.0 0.00 0.00 0.00 95 1022.1
20260508093904 55 0.0 0.0 0.00 0.00 0.00 95 1022.0
20260508092909 54 0.0 0.0 0.00 0.00 0.00 95 1022.1
20260508090909 53 0.0 0.0 0.00 0.00 0.00 96 1022.0
20260508084909 53 0.0 0.0 0.00 0.00 0.00 97 1022.0
20260508082905 53 0.0 0.0 0.00 0.00 0.00 98 1021.9
20260508081904 53 0.0 0.0 0.00 0.00 0.00 98 1021.9
20260508080905 54 0.0 0.0 0.00 0.00 0.00 97 1021.9
20260508075909 54 0.0 0.0 0.00 0.00 0.00 97 1021.9
20260508073904 54 0.0 0.0 0.00 0.00 0.00 97 1022.0
20260508072904 53 0.0 0.0 0.00 0.00 0.00 98 1021.9
20260508071904 53 0.0 0.0 0.00 0.00 0.00 99 1021.9
20260508070904 53 0.0 0.0 0.00 0.00 0.00 10 1021.8
20260508065905 53 0.0 0.0 0.00 0.00 0.00 10 1021.9
20260508064904 52 0.0 0.0 0.00 0.00 0.00 10 1021.5
20260508063908 52 0.0 0.0 0.00 0.00 0.00 10 1021.5
20260508061905 52 0.0 0.0 0.00 0.00 0.00 10 1021.6
20260508060904 52 0.0 0.0 0.00 0.00 0.00 10 1021.6
20260508055903 51 0.0 0.0 0.00 0.00 0.00 10 1021.4
20260508054904 51 0.0 0.0 0.00 0.00 0.00 10 1021.4
20260508053905 51 0.0 0.0 0.00 0.00 0.00 10 1021.4
20260508052904 51 0.0 0.0 0.00 0.00 0.00 10 1021.4
20260508051904 51 0.0 0.0 0.00 0.00 0.00 10 1021.2
20260508050905 51 0.0 0.0 0.00 0.00 0.00 10 1021.0
20260508045905 50 0.0 0.0 0.00 0.00 0.00 10 1021.1
20260508044905 50 0.0 0.0 0.00 0.00 0.00 10 1020.9
20260508043904 50 0.0 0.0 0.00 0.00 0.00 10 1020.8
20260508042903 50 0.0 0.0 0.00 0.00 0.00 10 1020.7
20260508041908 50 0.0 0.0 0.00 0.00 0.00 10 1020.6
20260508035904 50 0.0 0.0 0.00 0.00 0.00 10 1020.4
20260508034903 50 0.0 0.0 0.00 0.00 0.00 10 1020.4
20260508033908 50 0.0 0.0 0.00 0.00 0.00 10 1020.4
20260508031903 50 0.0 0.0 0.00 0.00 0.00 10 1020.5
20260508030903 50 0.0 0.0 0.00 0.00 0.00 10 1020.6
20260508025904 51 0.0 0.0 0.00 0.00 0.00 10 1020.7
20260508024904 51 0.0 0.0 0.00 0.00 0.00 10 1020.7
20260508023904 51 0.0 0.0 0.00 0.00 0.00 10 1020.7
20260508022904 51 0.0 0.0 0.00 0.00 0.00 10 1020.7
20260508021904 51 0.0 0.0 0.00 0.00 0.00 10 1020.8
20260508020905 51 0.0 0.0 0.00 0.00 0.00 10 1020.9
20260508015905 51 0.0 0.0 0.00 0.00 0.00 10 1020.8
20260508014904 51 0.0 0.0 0.00 0.00 0.00 10 1020.8
20260508013908 51 0.0 0.0 0.00 0.00 0.00 10 1020.8
20260508011904 51 0.0 0.0 0.00 0.00 0.00 10 1020.7
20260508010904 51 0.0 0.0 0.00 0.00 0.00 10 1020.7
20260508005905 50 0.0 0.0 0.00 0.00 0.00 10 1020.6
20260508004904 51 0.0 0.0 0.00 0.00 0.00 10 1020.6
20260508003905 51 0.0 0.0 0.00 0.00 0.00 10 1020.6
20260508002904 51 0.0 0.0 0.00 0.00 0.00 10 1020.6
20260508001905 51 0.0 0.0 0.00 0.00 0.00 10 1020.5
20260508000905 51 0.0 0.0 0.00 0.00 0.00 10 1020.5
20260507235905 51 0.0 0.0 0.00 0.00 0.00 10 1020.6
20260507234904 51 0.0 0.0 0.00 0.00 0.00 10 1020.8
20260507233904 51 0.0 0.0 0.00 0.00 0.00 10 1020.8
20260507232905 51 0.0 0.0 0.00 0.00 0.00 10 1020.8
20260507231904 51 0.0 0.0 0.00 0.00 0.00 10 1020.8
20260507230904 51 0.0 0.0 0.00 0.00 0.00 10 1020.7
20260507225905 51 0.0 0.0 0.00 0.00 0.00 10 1020.6
20260507224904 51 0.0 0.0 0.00 0.00 0.00 10 1020.6
20260507223904 51 0.0 0.0 0.00 0.00 0.00 10 1020.5
20260507222904 51 0.0 0.0 0.00 0.00 0.00 10 1020.5
20260507221904 51 0.0 0.0 0.00 0.00 0.00 10 1020.6
20260507220905 51 0.0 0.0 0.00 0.00 0.00 10 1020.5
20260507215904 51 0.0 0.0 0.00 0.00 0.00 10 1020.5
20260507214908 51 0.0 0.0 0.00 0.00 0.00 10 1020.4
20260507211904 51 0.0 0.0 0.00 0.00 0.00 10 1020.4
20260507210905 51 0.0 0.0 0.00 0.00 0.00 10 1020.3
20260507205904 51 0.0 0.0 0.00 0.00 0.00 10 1020.3
20260507204904 51 0.0 0.0 0.00 0.00 0.00 10 1020.1
20260507203909 51 0.0 0.0 0.00 0.00 0.00 10 1020.2
20260507201904 51 0.0 0.0 0.00 0.00 0.00 10 1020.1
20260507200904 51 0.0 0.0 0.00 0.00 0.00 10 1019.9
20260507195905 51 0.0 0.0 0.00 0.00 0.00 10 1020.0
20260507194904 51 0.0 0.0 0.00 0.00 0.00 10 1019.9
20260507193909 51 0.0 0.0 0.00 0.00 0.00 10 1019.9
20260507190904 51 0.0 0.0 0.00 0.00 0.00 10 1019.6
20260507185904 51 0.0 0.0 0.00 0.00 0.00 10 1019.5
20260507184903 52 0.0 0.0 0.00 0.00 0.00 10 1019.5
20260507183903 52 0.0 0.0 0.00 0.00 0.00 10 1019.4
20260507182904 52 0.0 0.0 0.00 0.00 0.00 10 1019.3
20260507181905 52 0.0 0.0 0.00 0.00 0.00 10 1019.2
20260507180905 52 0.0 0.0 0.00 0.00 0.00 10 1019.1
20260507175905 52 0.0 0.0 0.00 0.00 0.00 10 1019.1
20260507174904 52 0.0 0.0 0.00 0.00 0.00 10 1019.1
20260507173905 52 0.0 0.0 0.00 0.00 0.00 10 1019.0
20260507172905 52 0.0 0.0 0.00 0.00 0.00 10 1018.8